Location: Long Geng
(2.6167°N, 114.1333°E)
Time: 23:08:59
(UTC+00:00)

BLOCK DM-SL - Pass Details

Date: 14 May 2021
Orbit: 1166 x 35714 km, 6.1° (Epoch: 12 June)

Event Time Altitude Azimuth Distance (km) Brightness Sun altitude
Rises 12:39:30 0° 267° (W) 4,080 7.6 -31.8°
Reaches altitude 10° 12:41:47 10° 262° (W) 3,063 6.7 -32.3°
Maximum altitude 12:47:44 62° 181° (S) 1,665 4.4 -33.7°
Enters shadow 12:47:48 62° 178° (S) 1,672 4.4 -33.7°
